Time,TemperatureF,DewpointF,PressureIn,WindDirection,WindDirectionDegrees,WindSpeedMPH,WindSpeedGustMPH,Humidity,HourlyPrecipIn,Conditions,Clouds,dailyrainin,SolarRadiationWatts/m^2,SoftwareType,DateUTC
2013-09-19 00:02:00,47.6,24.5,29.92,SE,139,6.0,10.0,40,0.00,,,0.00,0,WeatherCatV1.21B27,2013-09-19 07:02:00,
2013-09-19 00:07:00,47.4,24.3,29.92,SSE,152,0.0,10.0,40,0.00,,,0.00,0,WeatherCatV1.21B27,2013-09-19 07:07:00,
2013-09-19 00:12:00,47.4,24.3,29.92,SE,134,4.0,12.0,40,0.00,,,0.00,0,WeatherCatV1.21B27,2013-09-19 07:12:00,
2013-09-19 00:17:00,47.4,24.3,29.91,ESE,116,3.0,6.0,40,0.00,,,0.00,0,WeatherCatV1.21B27,2013-09-19 07:17:00,
2013-09-19 00:22:00,47.3,24.8,29.91,SE,124,3.0,7.0,41,0.00,,,0.00,0,WeatherCatV1.21B27,2013-09-19 07:22:00,
2013-09-19 00:27:00,47.1,24.6,29.91,SE,131,4.0,9.0,41,0.00,,,0.00,0,WeatherCatV1.21B27,2013-09-19 07:27:00,
2013-09-19 00:32:00,47.1,24.6,29.91,SSE,152,4.0,9.0,41,0.00,,,0.00,0,WeatherCatV1.21B27,2013-09-19 07:32:00,
2013-09-19 00:37:00,46.8,24.4,29.91,SE,124,6.0,10.0,41,0.00,,,0.00,0,WeatherCatV1.21B27,2013-09-19 07:37:00,
2013-09-19 00:42:00,46.8,24.4,29.91,SE,129,7.0,7.0,41,0.00,,,0.00,0,WeatherCatV1.21B27,2013-09-19 07:42:00,
2013-09-19 00:47:00,46.7,24.8,29.91,SE,124,4.0,6.0,42,0.00,,,0.00,0,WeatherCatV1.21B27,2013-09-19 07:47:00,
2013-09-19 00:52:00,46.7,24.8,29.91,ESE,108,5.0,11.0,42,0.00,,,0.00,0,WeatherCatV1.21B27,2013-09-19 07:52:00,
2013-09-19 00:57:00,46.5,24.7,29.91,SE,125,4.0,4.0,42,0.00,,,0.00,0,WeatherCatV1.21B27,2013-09-19 07:57:00,
2013-09-19 01:02:00,46.4,24.6,29.91,SE,133,6.0,8.0,42,0.00,,,0.00,0,WeatherCatV1.21B27,2013-09-19 08:02:00,
2013-09-19 01:07:00,46.4,24.6,29.91,SE,138,6.0,6.0,42,0.00,,,0.00,0,WeatherCatV1.21B27,2013-09-19 08:07:00,
2013-09-19 01:12:00,46.4,24.6,29.91,ESE,120,5.0,10.0,42,0.00,,,0.00,0,WeatherCatV1.21B27,2013-09-19 08:12:00,
2013-09-19 01:17:00,46.4,24.6,29.90,SE,125,6.0,7.0,42,0.00,,,0.00,0,WeatherCatV1.21B27,2013-09-19 08:17:00,
2013-09-19 01:22:00,46.4,24.6,29.90,ESE,109,8.0,10.0,42,0.00,,,0.00,0,WeatherCatV1.21B27,2013-09-19 08:22:00,
2013-09-19 01:27:00,46.4,24.6,29.90,SE,140,3.0,10.0,42,0.00,,,0.00,0,WeatherCatV1.21B27,2013-09-19 08:27:00,
2013-09-19 01:32:00,46.2,24.4,29.89,East,92,2.0,10.0,42,0.00,,,0.00,0,WeatherCatV1.21B27,2013-09-19 08:32:00,
2013-09-19 01:37:00,46.1,24.3,29.89,SE,134,4.0,10.0,42,0.00,,,0.00,0,WeatherCatV1.21B27,2013-09-19 08:37:00,
2013-09-19 01:42:00,46.1,24.3,29.89,SE,128,6.0,11.0,42,0.00,,,0.00,0,WeatherCatV1.21B27,2013-09-19 08:42:00,
2013-09-19 01:47:00,46.0,24.8,29.89,SSE,147,9.0,10.0,43,0.00,,,0.00,0,WeatherCatV1.21B27,2013-09-19 08:47:00,
2013-09-19 01:52:00,46.0,24.8,29.89,SSE,163,16.0,16.0,43,0.00,,,0.00,0,WeatherCatV1.21B27,2013-09-19 08:52:00,
2013-09-19 01:57:00,45.8,24.6,29.89,ESE,118,3.0,9.0,43,0.00,,,0.00,0,WeatherCatV1.21B27,2013-09-19 08:57:00,
2013-09-19 02:02:00,45.8,24.6,29.89,ESE,121,4.0,8.0,43,0.00,,,0.00,0,WeatherCatV1.21B27,2013-09-19 09:02:00,
2013-09-19 02:07:00,45.7,24.5,29.89,SSE,155,7.0,8.0,43,0.00,,,0.00,0,WeatherCatV1.21B27,2013-09-19 09:07:00,
2013-09-19 02:12:00,45.5,24.3,29.89,SE,142,6.0,8.0,43,0.00,,,0.00,0,WeatherCatV1.21B27,2013-09-19 09:12:00,
2013-09-19 02:17:00,45.5,24.3,29.88,East,101,6.0,10.0,43,0.00,,,0.00,0,WeatherCatV1.21B27,2013-09-19 09:17:00,
2013-09-19 02:22:00,45.7,23.9,29.88,SE,126,6.0,14.0,42,0.00,,,0.00,0,WeatherCatV1.21B27,2013-09-19 09:22:00,
2013-09-19 02:27:00,45.7,24.5,29.88,ESE,111,4.0,6.0,43,0.00,,,0.00,0,WeatherCatV1.21B27,2013-09-19 09:27:00,
2013-09-19 02:32:00,45.5,24.3,29.86,ESE,106,3.0,9.0,43,0.00,,,0.00,0,WeatherCatV1.21B27,2013-09-19 09:32:00,
2013-09-19 02:37:00,45.2,24.6,29.86,ESE,116,6.0,9.0,44,0.00,,,0.00,0,WeatherCatV1.21B27,2013-09-19 09:37:00,
2013-09-19 02:42:00,45.2,24.6,29.86,ESE,106,5.0,6.0,44,0.00,,,0.00,0,WeatherCatV1.21B27,2013-09-19 09:42:00,
2013-09-19 02:47:00,45.1,24.5,29.88,SE,124,4.0,5.0,44,0.00,,,0.00,0,WeatherCatV1.21B27,2013-09-19 09:47:00,
2013-09-19 02:52:00,44.9,24.3,29.88,ESE,115,2.0,6.0,44,0.00,,,0.00,0,WeatherCatV1.21B27,2013-09-19 09:52:00,
2013-09-19 02:57:00,44.8,24.2,29.88,ESE,120,5.0,7.0,44,0.00,,,0.00,0,WeatherCatV1.21B27,2013-09-19 09:57:00,
2013-09-19 03:02:00,44.8,24.8,29.87,ESE,118,5.0,6.0,45,0.00,,,0.00,0,WeatherCatV1.21B27,2013-09-19 10:02:00,
2013-09-19 03:07:00,44.8,24.8,29.87,SE,129,7.0,7.0,45,0.00,,,0.00,0,WeatherCatV1.21B27,2013-09-19 10:07:00,
2013-09-19 03:12:00,44.8,24.2,29.87,SE,141,6.0,9.0,44,0.00,,,0.00,0,WeatherCatV1.21B27,2013-09-19 10:12:00,
2013-09-19 03:17:00,44.6,24.6,29.87,ESE,113,6.0,6.0,45,0.00,,,0.00,0,WeatherCatV1.21B27,2013-09-19 10:17:00,
2013-09-19 03:22:00,44.5,24.5,29.87,ESE,107,6.0,8.0,45,0.00,,,0.00,0,WeatherCatV1.21B27,2013-09-19 10:22:00,
2013-09-19 03:27:00,44.2,24.2,29.87,ESE,116,5.0,10.0,45,0.00,,,0.00,0,WeatherCatV1.21B27,2013-09-19 10:27:00,
2013-09-19 03:32:00,44.2,24.2,29.86,ESE,118,5.0,8.0,45,0.00,,,0.00,0,WeatherCatV1.21B27,2013-09-19 10:32:00,
2013-09-19 03:37:00,44.3,24.3,29.86,ESE,113,5.0,11.0,45,0.00,,,0.00,0,WeatherCatV1.21B27,2013-09-19 10:37:00,
2013-09-19 03:42:00,44.2,24.2,29.86,ESE,106,6.0,10.0,45,0.00,,,0.00,0,WeatherCatV1.21B27,2013-09-19 10:42:00,
2013-09-19 03:47:00,44.2,24.2,29.86,ESE,107,5.0,10.0,45,0.00,,,0.00,0,WeatherCatV1.21B27,2013-09-19 10:47:00,
2013-09-19 03:52:00,44.2,24.2,29.86,ESE,108,5.0,9.0,45,0.00,,,0.00,0,WeatherCatV1.21B27,2013-09-19 10:52:00,
2013-09-19 03:57:00,44.2,24.2,29.86,ESE,111,4.0,9.0,45,0.00,,,0.00,0,WeatherCatV1.21B27,2013-09-19 10:57:00,
2013-09-19 04:02:00,44.2,24.2,29.86,ESE,105,4.0,10.0,45,0.00,,,0.00,0,WeatherCatV1.21B27,2013-09-19 11:02:00,
2013-09-19 04:07:00,44.2,24.2,29.86,SE,138,8.0,10.0,45,0.00,,,0.00,0,WeatherCatV1.21B27,2013-09-19 11:07:00,
2013-09-19 04:12:00,44.2,24.2,29.86,ESE,108,4.0,9.0,45,0.00,,,0.00,0,WeatherCatV1.21B27,2013-09-19 11:12:00,
2013-09-19 04:17:00,44.2,24.2,29.85,SE,135,4.0,7.0,45,0.00,,,0.00,0,WeatherCatV1.21B27,2013-09-19 11:17:00,
2013-09-19 04:22:00,44.1,24.7,29.85,ESE,103,3.0,11.0,46,0.00,,,0.00,0,WeatherCatV1.21B27,2013-09-19 11:22:00,
2013-09-19 04:27:00,44.1,24.7,29.85,SE,130,9.0,10.0,46,0.00,,,0.00,0,WeatherCatV1.21B27,2013-09-19 11:27:00,
2013-09-19 04:32:00,44.1,24.7,29.86,SE,128,6.0,10.0,46,0.00,,,0.00,0,WeatherCatV1.21B27,2013-09-19 11:32:00,
2013-09-19 04:37:00,44.1,24.7,29.86,ESE,115,4.0,9.0,46,0.00,,,0.00,0,WeatherCatV1.21B27,2013-09-19 11:37:00,
2013-09-19 04:42:00,44.1,24.7,29.86,ESE,120,5.0,10.0,46,0.00,,,0.00,0,WeatherCatV1.21B27,2013-09-19 11:42:00,
2013-09-19 04:47:00,44.1,24.7,29.86,SE,124,5.0,7.0,46,0.00,,,0.00,0,WeatherCatV1.21B27,2013-09-19 11:47:00,
2013-09-19 04:52:00,43.9,24.5,29.86,ESE,110,3.0,6.0,46,0.00,,,0.00,0,WeatherCatV1.21B27,2013-09-19 11:52:00,
2013-09-19 04:57:00,43.8,24.4,29.86,ESE,112,1.0,5.0,46,0.00,,,0.00,0,WeatherCatV1.21B27,2013-09-19 11:57:00,
2013-09-19 05:02:00,43.8,24.4,29.86,East,81,4.0,6.0,46,0.00,,,0.00,0,WeatherCatV1.21B27,2013-09-19 12:02:00,
2013-09-19 05:07:00,43.8,24.4,29.86,ESE,109,4.0,7.0,46,0.00,,,0.00,0,WeatherCatV1.21B27,2013-09-19 12:07:00,
2013-09-19 05:12:00,43.8,24.4,29.86,ESE,103,3.0,10.0,46,0.00,,,0.00,0,WeatherCatV1.21B27,2013-09-19 12:12:00,
2013-09-19 05:17:00,43.8,24.4,29.87,SE,127,9.0,11.0,46,0.00,,,0.00,0,WeatherCatV1.21B27,2013-09-19 12:17:00,
2013-09-19 05:22:00,43.8,24.4,29.87,ESE,120,9.0,12.0,46,0.00,,,0.00,0,WeatherCatV1.21B27,2013-09-19 12:22:00,
2013-09-19 05:27:00,43.8,24.4,29.87,ESE,120,10.0,11.0,46,0.00,,,0.00,0,WeatherCatV1.21B27,2013-09-19 12:27:00,
2013-09-19 05:32:00,43.6,24.7,29.87,ESE,118,6.0,10.0,47,0.00,,,0.00,0,WeatherCatV1.21B27,2013-09-19 12:32:00,
2013-09-19 05:37:00,43.6,24.7,29.87,SE,125,7.0,10.0,47,0.00,,,0.00,0,WeatherCatV1.21B27,2013-09-19 12:37:00,
2013-09-19 05:42:00,43.6,24.7,29.87,ESE,106,5.0,10.0,47,0.00,,,0.00,0,WeatherCatV1.21B27,2013-09-19 12:42:00,
2013-09-19 05:47:00,43.6,24.7,29.87,ESE,115,6.0,12.0,47,0.00,,,0.00,0,WeatherCatV1.21B27,2013-09-19 12:47:00,
2013-09-19 05:52:00,43.6,24.7,29.87,ESE,112,5.0,9.0,47,0.00,,,0.00,0,WeatherCatV1.21B27,2013-09-19 12:52:00,
2013-09-19 05:57:00,43.6,24.7,29.87,ESE,122,5.0,10.0,47,0.00,,,0.00,0,WeatherCatV1.21B27,2013-09-19 12:57:00,
2013-09-19 06:02:00,43.5,24.6,29.87,SE,134,6.0,10.0,47,0.00,,,0.00,0,WeatherCatV1.21B27,2013-09-19 13:02:00,
2013-09-19 06:07:00,43.5,24.6,29.87,ESE,122,6.0,9.0,47,0.00,,,0.00,0,WeatherCatV1.21B27,2013-09-19 13:07:00,
2013-09-19 06:12:00,43.5,24.6,29.87,SE,136,8.0,11.0,47,0.00,,,0.00,0,WeatherCatV1.21B27,2013-09-19 13:12:00,
2013-09-19 06:17:00,43.5,24.6,29.90,ESE,105,3.0,11.0,47,0.00,,,0.00,0,WeatherCatV1.21B27,2013-09-19 13:17:00,
2013-09-19 06:22:00,43.3,24.4,29.90,SE,126,7.0,10.0,47,0.00,,,0.00,0,WeatherCatV1.21B27,2013-09-19 13:22:00,
2013-09-19 06:27:00,43.2,24.4,29.90,ESE,110,5.0,10.0,47,0.00,,,0.00,0,WeatherCatV1.21B27,2013-09-19 13:27:00,
2013-09-19 06:32:00,43.2,24.4,29.91,ESE,110,6.0,9.0,47,0.00,,,0.00,0,WeatherCatV1.21B27,2013-09-19 13:32:00,
2013-09-19 06:37:00,43.1,24.3,29.91,ESE,120,5.0,9.0,47,0.00,,,0.00,0,WeatherCatV1.21B27,2013-09-19 13:37:00,
2013-09-19 06:42:00,43.1,24.3,29.91,ESE,122,5.0,10.0,47,0.00,,,0.00,0,WeatherCatV1.21B27,2013-09-19 13:42:00,
2013-09-19 06:47:00,43.2,24.4,29.92,ESE,110,6.0,10.0,47,0.00,,,0.00,5,WeatherCatV1.21B27,2013-09-19 13:47:00,
2013-09-19 06:52:00,43.2,24.4,29.92,SE,130,6.0,9.0,47,0.00,,,0.00,9,WeatherCatV1.21B27,2013-09-19 13:52:00,
2013-09-19 06:57:00,43.2,24.4,29.92,SE,137,6.0,10.0,47,0.00,,,0.00,11,WeatherCatV1.21B27,2013-09-19 13:57:00,
2013-09-19 07:02:00,43.3,24.4,29.92,ESE,121,6.0,8.0,47,0.00,,,0.00,12,WeatherCatV1.21B27,2013-09-19 14:02:00,
2013-09-19 07:07:00,43.5,24.6,29.92,ESE,119,4.0,6.0,47,0.00,,,0.00,12,WeatherCatV1.21B27,2013-09-19 14:07:00,
2013-09-19 07:12:00,43.8,24.4,29.92,SE,142,7.0,9.0,46,0.00,,,0.00,18,WeatherCatV1.21B27,2013-09-19 14:12:00,
2013-09-19 07:17:00,43.9,24.5,29.95,SE,135,6.0,7.0,46,0.00,,,0.00,16,WeatherCatV1.21B27,2013-09-19 14:17:00,
2013-09-19 07:22:00,44.1,24.1,29.95,ESE,111,6.0,9.0,45,0.00,,,0.00,18,WeatherCatV1.21B27,2013-09-19 14:22:00,
2013-09-19 07:27:00,44.3,24.3,29.95,ESE,110,6.0,9.0,45,0.00,,,0.00,18,WeatherCatV1.21B27,2013-09-19 14:27:00,
2013-09-19 07:32:00,44.5,24.5,29.95,SE,127,6.0,11.0,45,0.00,,,0.00,19,WeatherCatV1.21B27,2013-09-19 14:32:00,
2013-09-19 07:37:00,44.6,24.6,29.95,ESE,106,4.0,9.0,45,0.00,,,0.00,53,WeatherCatV1.21B27,2013-09-19 14:37:00,
2013-09-19 07:42:00,44.9,24.3,29.95,ESE,116,3.0,9.0,44,0.00,,,0.00,104,WeatherCatV1.21B27,2013-09-19 14:42:00,
2013-09-19 07:47:00,45.4,24.8,29.94,SE,141,7.0,12.0,44,0.00,,,0.00,120,WeatherCatV1.21B27,2013-09-19 14:47:00,
2013-09-19 07:52:00,46.0,24.8,29.94,ESE,106,9.0,9.0,43,0.00,,,0.00,134,WeatherCatV1.21B27,2013-09-19 14:52:00,
2013-09-19 07:57:00,46.4,24.6,29.94,ESE,117,7.0,11.0,42,0.00,,,0.00,149,WeatherCatV1.21B27,2013-09-19 14:57:00,
2013-09-19 08:02:00,46.8,24.4,29.92,SE,124,5.0,13.0,41,0.00,,,0.00,165,WeatherCatV1.21B27,2013-09-19 15:02:00,
2013-09-19 08:07:00,47.1,24.0,29.92,SE,133,6.0,12.0,40,0.00,,,0.00,179,WeatherCatV1.21B27,2013-09-19 15:07:00,
2013-09-19 08:12:00,47.4,24.3,29.92,ESE,109,6.0,9.0,40,0.00,,,0.00,197,WeatherCatV1.21B27,2013-09-19 15:12:00,
2013-09-19 08:17:00,47.7,24.0,29.92,ESE,112,6.0,9.0,39,0.00,,,0.00,213,WeatherCatV1.21B27,2013-09-19 15:17:00,
2013-09-19 08:22:00,48.0,24.2,29.92,ESE,102,7.0,12.0,39,0.00,,,0.00,230,WeatherCatV1.21B27,2013-09-19 15:22:00,
2013-09-19 08:27:00,48.5,24.7,29.92,ESE,108,5.0,10.0,39,0.00,,,0.00,246,WeatherCatV1.21B27,2013-09-19 15:27:00,
2013-09-19 08:33:00,48.8,25.0,29.92,ESE,106,9.0,13.0,39,0.00,,,0.00,267,WeatherCatV1.21B27,2013-09-19 15:33:00,
2013-09-19 08:38:00,48.9,24.4,29.92,ESE,106,4.0,12.0,38,0.00,,,0.00,285,WeatherCatV1.21B27,2013-09-19 15:38:00,
2013-09-19 08:43:00,49.1,24.6,29.92,East,99,10.0,12.0,38,0.00,,,0.00,302,WeatherCatV1.21B27,2013-09-19 15:43:00,
2013-09-19 08:48:00,49.1,24.6,29.93,ESE,116,5.0,14.0,38,0.00,,,0.00,315,WeatherCatV1.21B27,2013-09-19 15:48:00,
2013-09-19 08:53:00,49.2,24.7,29.93,ESE,106,7.0,13.0,38,0.00,,,0.00,332,WeatherCatV1.21B27,2013-09-19 15:53:00,
2013-09-19 08:58:00,49.4,24.9,29.93,ENE,69,2.0,11.0,38,0.00,,,0.00,350,WeatherCatV1.21B27,2013-09-19 15:58:00,
2013-09-19 09:03:00,49.5,25.0,29.93,ESE,119,8.0,11.0,38,0.00,,,0.00,366,WeatherCatV1.21B27,2013-09-19 16:03:00,
2013-09-19 09:08:00,49.5,25.0,29.93,ESE,108,2.0,13.0,38,0.00,,,0.00,383,WeatherCatV1.21B27,2013-09-19 16:08:00,
2013-09-19 09:13:00,49.5,25.0,29.93,ESE,120,6.0,14.0,38,0.00,,,0.00,399,WeatherCatV1.21B27,2013-09-19 16:13:00,
2013-09-19 09:18:00,49.5,25.0,29.92,SE,126,10.0,15.0,38,0.00,,,0.00,415,WeatherCatV1.21B27,2013-09-19 16:18:00,
2013-09-19 09:23:00,49.9,24.0,29.92,SE,133,7.0,14.0,36,0.00,,,0.00,427,WeatherCatV1.21B27,2013-09-19 16:23:00,
2013-09-19 09:28:00,50.1,24.9,29.92,SE,145,2.0,12.0,37,0.00,,,0.00,445,WeatherCatV1.21B27,2013-09-19 16:28:00,
2013-09-19 09:33:00,50.2,24.9,29.92,SE,124,8.0,12.0,37,0.00,,,0.00,459,WeatherCatV1.21B27,2013-09-19 16:33:00,
2013-09-19 09:38:00,50.7,24.7,29.92,SE,124,7.0,8.0,36,0.00,,,0.00,475,WeatherCatV1.21B27,2013-09-19 16:38:00,
2013-09-19 09:43:00,51.0,24.3,29.92,ESE,121,5.0,13.0,35,0.00,,,0.00,490,WeatherCatV1.21B27,2013-09-19 16:43:00,
2013-09-19 09:48:00,51.4,24.7,29.93,ESE,105,5.0,10.0,35,0.00,,,0.00,504,WeatherCatV1.21B27,2013-09-19 16:48:00,
2013-09-19 09:53:00,51.7,24.9,29.93,ESE,106,6.0,11.0,35,0.00,,,0.00,519,WeatherCatV1.21B27,2013-09-19 16:53:00,
2013-09-19 09:58:00,52.3,25.5,29.93,ESE,122,8.0,8.0,35,0.00,,,0.00,531,WeatherCatV1.21B27,2013-09-19 16:58:00,
2013-09-19 10:03:00,52.9,23.9,29.92,ESE,120,11.0,12.0,32,0.00,,,0.00,545,WeatherCatV1.21B27,2013-09-19 17:03:00,
2013-09-19 10:08:00,53.2,24.9,29.92,ESE,120,11.0,11.0,33,0.00,,,0.00,561,WeatherCatV1.21B27,2013-09-19 17:08:00,
2013-09-19 10:13:00,53.5,24.4,29.92,ESE,103,2.0,15.0,32,0.00,,,0.00,573,WeatherCatV1.21B27,2013-09-19 17:13:00,
2013-09-19 10:18:00,53.6,23.7,29.93,ESE,102,2.0,11.0,31,0.00,,,0.00,585,WeatherCatV1.21B27,2013-09-19 17:18:00,
2013-09-19 10:23:00,54.1,24.1,29.93,ESE,116,7.0,12.0,31,0.00,,,0.00,599,WeatherCatV1.21B27,2013-09-19 17:23:00,
2013-09-19 10:28:00,54.2,24.2,29.93,ESE,110,10.0,11.0,31,0.00,,,0.00,612,WeatherCatV1.21B27,2013-09-19 17:28:00,
2013-09-19 10:33:00,54.7,24.7,29.93,ESE,104,6.0,10.0,31,0.00,,,0.00,621,WeatherCatV1.21B27,2013-09-19 17:33:00,
2013-09-19 10:38:00,55.0,24.9,29.93,ESE,108,3.0,11.0,31,0.00,,,0.00,633,WeatherCatV1.21B27,2013-09-19 17:38:00,
2013-09-19 10:43:00,55.4,24.5,29.93,ESE,108,4.0,10.0,30,0.00,,,0.00,645,WeatherCatV1.21B27,2013-09-19 17:43:00,
2013-09-19 10:48:00,55.7,24.8,29.91,ESE,104,6.0,12.0,30,0.00,,,0.00,656,WeatherCatV1.21B27,2013-09-19 17:48:00,
2013-09-19 10:53:00,55.7,23.9,29.91,ESE,120,7.0,11.0,29,0.00,,,0.00,668,WeatherCatV1.21B27,2013-09-19 17:53:00,
2013-09-19 10:58:00,56.2,24.4,29.91,ESE,123,7.0,10.0,29,0.00,,,0.00,680,WeatherCatV1.21B27,2013-09-19 17:58:00,
2013-09-19 11:03:00,56.0,23.4,29.91,ESE,110,4.0,12.0,28,0.00,,,0.00,687,WeatherCatV1.21B27,2013-09-19 18:03:00,
2013-09-19 11:08:00,56.3,23.6,29.91,SSE,148,6.0,10.0,28,0.00,,,0.00,698,WeatherCatV1.21B27,2013-09-19 18:08:00,
2013-09-19 11:13:00,56.7,24.0,29.91,SSE,162,0.0,11.0,28,0.00,,,0.00,708,WeatherCatV1.21B27,2013-09-19 18:13:00,
2013-09-19 11:18:00,57.2,24.4,29.91,ESE,122,4.0,11.0,28,0.00,,,0.00,715,WeatherCatV1.21B27,2013-09-19 18:18:00,
2013-09-19 11:23:00,57.5,24.7,29.91,SSE,153,8.0,13.0,28,0.00,,,0.00,724,WeatherCatV1.21B27,2013-09-19 18:23:00,
2013-09-19 11:28:00,58.1,25.2,29.91,ESE,116,8.0,11.0,28,0.00,,,0.00,731,WeatherCatV1.21B27,2013-09-19 18:28:00,
2013-09-19 11:33:00,58.3,24.5,29.90,SE,136,6.0,12.0,27,0.00,,,0.00,742,WeatherCatV1.21B27,2013-09-19 18:33:00,
2013-09-19 11:38:00,58.3,23.6,29.90,SE,132,5.0,14.0,26,0.00,,,0.00,749,WeatherCatV1.21B27,2013-09-19 18:38:00,
2013-09-19 11:43:00,59.0,24.2,29.90,ESE,111,7.0,11.0,26,0.00,,,0.00,756,WeatherCatV1.21B27,2013-09-19 18:43:00,
2013-09-19 11:48:00,59.3,24.4,29.90,SE,135,1.0,6.0,26,0.00,,,0.00,763,WeatherCatV1.21B27,2013-09-19 18:48:00,
2013-09-19 11:53:00,59.9,24.9,29.90,East,99,2.0,7.0,26,0.00,,,0.00,619,WeatherCatV1.21B27,2013-09-19 18:53:00,
2013-09-19 11:58:00,60.1,25.1,29.90,SSE,149,7.0,10.0,26,0.00,,,0.00,621,WeatherCatV1.21B27,2013-09-19 18:58:00,
2013-09-19 12:03:00,60.4,25.4,29.88,ESE,102,3.0,10.0,26,0.00,,,0.00,601,WeatherCatV1.21B27,2013-09-19 19:03:00,
2013-09-19 12:08:00,60.9,24.9,29.88,SSE,160,2.0,6.0,25,0.00,,,0.00,784,WeatherCatV1.21B27,2013-09-19 19:08:00,
2013-09-19 12:13:00,61.5,24.4,29.88,SSE,153,11.0,11.0,24,0.00,,,0.00,788,WeatherCatV1.21B27,2013-09-19 19:13:00,
2013-09-19 12:18:00,61.5,24.4,29.88,SE,138,5.0,10.0,24,0.00,,,0.00,629,WeatherCatV1.21B27,2013-09-19 19:18:00,
2013-09-19 12:23:00,61.3,25.2,29.88,ESE,114,4.0,10.0,25,0.00,,,0.00,622,WeatherCatV1.21B27,2013-09-19 19:23:00,
2013-09-19 12:28:00,61.5,23.4,29.88,East,99,3.0,13.0,23,0.00,,,0.00,802,WeatherCatV1.21B27,2013-09-19 19:28:00,
2013-09-19 12:33:00,61.8,24.6,29.88,ESE,114,0.0,9.0,24,0.00,,,0.00,803,WeatherCatV1.21B27,2013-09-19 19:33:00,
2013-09-19 12:38:00,62.6,24.3,29.88,SSE,163,6.0,9.0,23,0.00,,,0.00,807,WeatherCatV1.21B27,2013-09-19 19:38:00,
2013-09-19 12:43:00,62.6,24.3,29.88,ESE,122,1.0,13.0,23,0.00,,,0.00,807,WeatherCatV1.21B27,2013-09-19 19:43:00,
2013-09-19 12:48:00,62.9,24.5,29.86,East,101,0.0,13.0,23,0.00,,,0.00,809,WeatherCatV1.21B27,2013-09-19 19:48:00,
2013-09-19 12:53:00,63.2,23.7,29.86,ESE,107,3.0,9.0,22,0.00,,,0.00,812,WeatherCatV1.21B27,2013-09-19 19:53:00,
2013-09-19 12:58:00,63.7,24.1,29.86,ESE,108,0.0,6.0,22,0.00,,,0.00,812,WeatherCatV1.21B27,2013-09-19 19:58:00,
2013-09-19 13:03:00,63.7,24.1,29.85,SSE,155,6.0,7.0,22,0.00,,,0.00,812,WeatherCatV1.21B27,2013-09-19 20:03:00,
2013-09-19 13:08:00,63.9,24.3,29.85,SE,128,5.0,11.0,22,0.00,,,0.00,810,WeatherCatV1.21B27,2013-09-19 20:08:00,
2013-09-19 13:13:00,64.0,24.4,29.85,ESE,115,2.0,3.0,22,0.00,,,0.00,810,WeatherCatV1.21B27,2013-09-19 20:13:00,
2013-09-19 13:18:00,64.3,23.5,29.85,SSE,151,11.0,11.0,21,0.00,,,0.00,810,WeatherCatV1.21B27,2013-09-19 20:18:00,
2013-09-19 13:23:00,65.0,25.2,29.85,SSE,151,2.0,2.0,22,0.00,,,0.00,809,WeatherCatV1.21B27,2013-09-19 20:23:00,
2013-09-19 13:28:00,65.8,25.9,29.85,ESE,113,3.0,5.0,22,0.00,,,0.00,809,WeatherCatV1.21B27,2013-09-19 20:28:00,
2013-09-19 13:33:00,65.8,23.6,29.83,SE,134,0.0,5.0,20,0.00,,,0.00,803,WeatherCatV1.21B27,2013-09-19 20:33:00,
2013-09-19 13:38:00,66.3,24.0,29.83,SE,126,5.0,7.0,20,0.00,,,0.00,802,WeatherCatV1.21B27,2013-09-19 20:38:00,
2013-09-19 13:43:00,66.1,25.0,29.83,SE,133,6.0,7.0,21,0.00,,,0.00,798,WeatherCatV1.21B27,2013-09-19 20:43:00,
2013-09-19 13:48:00,66.6,24.3,29.82,SE,130,5.0,6.0,20,0.00,,,0.00,793,WeatherCatV1.21B27,2013-09-19 20:48:00,
2013-09-19 13:53:00,66.6,24.3,29.82,ESE,118,1.0,11.0,20,0.00,,,0.00,789,WeatherCatV1.21B27,2013-09-19 20:53:00,
2013-09-19 13:58:00,66.9,24.5,29.82,East,81,3.0,4.0,20,0.00,,,0.00,784,WeatherCatV1.21B27,2013-09-19 20:58:00,
2013-09-19 14:03:00,66.9,24.5,29.82,SE,146,4.0,10.0,20,0.00,,,0.00,779,WeatherCatV1.21B27,2013-09-19 21:03:00,
2013-09-19 14:08:00,66.8,24.4,29.82,SSE,152,5.0,9.0,20,0.00,,,0.00,773,WeatherCatV1.21B27,2013-09-19 21:08:00,
2013-09-19 14:13:00,67.1,23.5,29.82,ESE,118,0.0,10.0,19,0.00,,,0.00,766,WeatherCatV1.21B27,2013-09-19 21:13:00,
2013-09-19 14:18:00,67.3,24.9,29.82,ESE,115,3.0,9.0,20,0.00,,,0.00,759,WeatherCatV1.21B27,2013-09-19 21:18:00,
2013-09-19 14:23:00,67.3,23.6,29.82,SE,143,0.0,10.0,19,0.00,,,0.00,752,WeatherCatV1.21B27,2013-09-19 21:23:00,
2013-09-19 14:28:00,67.1,24.7,29.82,ENE,72,4.0,10.0,20,0.00,,,0.00,747,WeatherCatV1.21B27,2013-09-19 21:28:00,
2013-09-19 14:33:00,67.1,25.9,29.81,ESE,105,2.0,5.0,21,0.00,,,0.00,742,WeatherCatV1.21B27,2013-09-19 21:33:00,
2013-09-19 14:38:00,67.6,25.1,29.81,ESE,120,1.0,4.0,20,0.00,,,0.00,731,WeatherCatV1.21B27,2013-09-19 21:38:00,
2013-09-19 14:43:00,67.3,24.9,29.81,ESE,104,1.0,11.0,20,0.00,,,0.00,722,WeatherCatV1.21B27,2013-09-19 21:43:00,
2013-09-19 14:48:00,67.3,24.9,29.81,SE,140,0.0,6.0,20,0.00,,,0.00,710,WeatherCatV1.21B27,2013-09-19 21:48:00,
2013-09-19 14:53:00,67.6,25.1,29.81,ESE,109,0.0,5.0,20,0.00,,,0.00,701,WeatherCatV1.21B27,2013-09-19 21:53:00,
2013-09-19 14:58:00,67.9,25.4,29.81,SSE,148,3.0,3.0,20,0.00,,,0.00,691,WeatherCatV1.21B27,2013-09-19 21:58:00,
2013-09-19 15:03:00,68.1,24.3,29.80,SE,143,0.0,7.0,19,0.00,,,0.00,684,WeatherCatV1.21B27,2013-09-19 22:03:00,
2013-09-19 15:08:00,68.4,24.5,29.80,SE,137,0.0,10.0,19,0.00,,,0.00,673,WeatherCatV1.21B27,2013-09-19 22:08:00,
2013-09-19 15:13:00,68.8,23.6,29.80,ESE,111,0.0,6.0,18,0.00,,,0.00,663,WeatherCatV1.21B27,2013-09-19 22:13:00,
2013-09-19 15:18:00,69.3,24.0,29.80,ESE,108,1.0,9.0,18,0.00,,,0.00,649,WeatherCatV1.21B27,2013-09-19 22:18:00,
2013-09-19 15:23:00,68.9,24.9,29.80,ESE,108,5.0,6.0,19,0.00,,,0.00,636,WeatherCatV1.21B27,2013-09-19 22:23:00,
2013-09-19 15:28:00,68.6,23.4,29.80,ESE,108,1.0,9.0,18,0.00,,,0.00,628,WeatherCatV1.21B27,2013-09-19 22:28:00,
2013-09-19 15:33:00,68.6,24.7,29.80,SE,130,0.0,3.0,19,0.00,,,0.00,615,WeatherCatV1.21B27,2013-09-19 22:33:00,
2013-09-19 15:38:00,69.3,24.0,29.80,ESE,110,4.0,7.0,18,0.00,,,0.00,603,WeatherCatV1.21B27,2013-09-19 22:38:00,
2013-09-19 15:43:00,68.8,23.6,29.80,ESE,115,2.0,4.0,18,0.00,,,0.00,592,WeatherCatV1.21B27,2013-09-19 22:43:00,
2013-09-19 15:48:00,69.1,23.8,29.80,East,90,0.0,4.0,18,0.00,,,0.00,577,WeatherCatV1.21B27,2013-09-19 22:48:00,
2013-09-19 15:53:00,68.9,23.6,29.80,ESE,111,4.0,6.0,18,0.00,,,0.00,568,WeatherCatV1.21B27,2013-09-19 22:53:00,
2013-09-19 15:58:00,68.6,23.4,29.80,SE,131,3.0,10.0,18,0.00,,,0.00,550,WeatherCatV1.21B27,2013-09-19 22:58:00,
2013-09-19 16:03:00,68.3,23.2,29.80,SE,133,0.0,6.0,18,0.00,,,0.00,536,WeatherCatV1.21B27,2013-09-19 23:03:00,
2013-09-19 16:08:00,68.6,23.4,29.80,ESE,107,0.0,3.0,18,0.00,,,0.00,524,WeatherCatV1.21B27,2013-09-19 23:08:00,
2013-09-19 16:13:00,68.9,23.6,29.80,ESE,106,3.0,3.0,18,0.00,,,0.00,513,WeatherCatV1.21B27,2013-09-19 23:13:00,
2013-09-19 16:18:00,68.8,23.6,29.79,East,97,1.0,10.0,18,0.00,,,0.00,497,WeatherCatV1.21B27,2013-09-19 23:18:00,
2013-09-19 16:23:00,68.4,23.2,29.79,ESE,114,1.0,4.0,18,0.00,,,0.00,482,WeatherCatV1.21B27,2013-09-19 23:23:00,
2013-09-19 16:28:00,68.4,23.2,29.79,East,100,0.0,5.0,18,0.00,,,0.00,469,WeatherCatV1.21B27,2013-09-19 23:28:00,
2013-09-19 16:33:00,68.4,23.2,29.79,East,94,1.0,2.0,18,0.00,,,0.00,454,WeatherCatV1.21B27,2013-09-19 23:33:00,
2013-09-19 16:38:00,68.1,23.0,29.79,SE,126,5.0,5.0,18,0.00,,,0.00,438,WeatherCatV1.21B27,2013-09-19 23:38:00,
2013-09-19 16:43:00,67.9,22.8,29.79,ESE,104,1.0,7.0,18,0.00,,,0.00,422,WeatherCatV1.21B27,2013-09-19 23:43:00,
2013-09-19 16:48:00,67.8,22.8,29.80,SE,139,5.0,8.0,18,0.00,,,0.00,410,WeatherCatV1.21B27,2013-09-19 23:48:00,
2013-09-19 16:53:00,67.6,22.6,29.80,ESE,104,1.0,2.0,18,0.00,,,0.00,394,WeatherCatV1.21B27,2013-09-19 23:53:00,
2013-09-19 16:58:00,67.6,22.6,29.80,ESE,108,0.0,5.0,18,0.00,,,0.00,378,WeatherCatV1.21B27,2013-09-19 23:58:00,
2013-09-19 17:03:00,67.9,22.8,29.79,ESE,114,0.0,5.0,18,0.00,,,0.00,360,WeatherCatV1.21B27,2013-09-20 00:03:00,
2013-09-19 17:08:00,67.9,22.8,29.79,ESE,106,0.0,5.0,18,0.00,,,0.00,345,WeatherCatV1.21B27,2013-09-20 00:08:00,
2013-09-19 17:13:00,67.8,22.8,29.79,ESE,120,1.0,3.0,18,0.00,,,0.00,327,WeatherCatV1.21B27,2013-09-20 00:13:00,
2013-09-19 17:18:00,67.8,24.0,29.79,ESE,110,0.0,4.0,19,0.00,,,0.00,311,WeatherCatV1.21B27,2013-09-20 00:18:00,
2013-09-19 17:23:00,67.8,22.8,29.79,ESE,103,1.0,3.0,18,0.00,,,0.00,295,WeatherCatV1.21B27,2013-09-20 00:23:00,
2013-09-19 17:28:00,67.3,22.4,29.79,South,169,0.0,8.0,18,0.00,,,0.00,278,WeatherCatV1.21B27,2013-09-20 00:28:00,
2013-09-19 17:33:00,67.1,22.2,29.80,ESE,116,0.0,1.0,18,0.00,,,0.00,260,WeatherCatV1.21B27,2013-09-20 00:33:00,
2013-09-19 17:38:00,67.3,22.4,29.80,ESE,112,0.0,4.0,18,0.00,,,0.00,243,WeatherCatV1.21B27,2013-09-20 00:38:00,
2013-09-19 17:43:00,67.3,22.4,29.80,ESE,113,2.0,2.0,18,0.00,,,0.00,225,WeatherCatV1.21B27,2013-09-20 00:43:00,
2013-09-19 17:48:00,66.9,23.3,29.81,SE,137,2.0,5.0,19,0.00,,,0.00,209,WeatherCatV1.21B27,2013-09-20 00:48:00,
2013-09-19 17:53:00,66.6,23.1,29.81,SE,128,0.0,0.0,19,0.00,,,0.00,192,WeatherCatV1.21B27,2013-09-20 00:53:00,
2013-09-19 17:58:00,66.4,21.6,29.81,ESE,120,0.0,0.0,18,0.00,,,0.00,178,WeatherCatV1.21B27,2013-09-20 00:58:00,
2013-09-19 18:03:00,66.6,21.8,29.81,ESE,120,1.0,1.0,18,0.00,,,0.00,162,WeatherCatV1.21B27,2013-09-20 01:03:00,
2013-09-19 18:08:00,66.4,21.6,29.81,ESE,120,0.0,1.0,18,0.00,,,0.00,146,WeatherCatV1.21B27,2013-09-20 01:08:00,
2013-09-19 18:13:00,66.3,21.5,29.81,ESE,120,0.0,0.0,18,0.00,,,0.00,130,WeatherCatV1.21B27,2013-09-20 01:13:00,
2013-09-19 18:18:00,66.3,21.5,29.82,SSW,205,0.0,1.0,18,0.00,,,0.00,114,WeatherCatV1.21B27,2013-09-20 01:18:00,
2013-09-19 18:23:00,66.1,22.6,29.82,WNW,283,7.0,9.0,19,0.00,,,0.00,100,WeatherCatV1.21B27,2013-09-20 01:23:00,
2013-09-19 18:28:00,65.8,22.4,29.82,NNW,330,4.0,5.0,19,0.00,,,0.00,84,WeatherCatV1.21B27,2013-09-20 01:28:00,
2013-09-19 18:33:00,65.6,22.2,29.82,NW,321,0.0,7.0,19,0.00,,,0.00,72,WeatherCatV1.21B27,2013-09-20 01:33:00,
2013-09-19 18:38:00,65.2,23.1,29.82,WNW,297,5.0,7.0,20,0.00,,,0.00,58,WeatherCatV1.21B27,2013-09-20 01:38:00,
2013-09-19 18:43:00,65.0,23.0,29.82,WNW,283,3.0,5.0,20,0.00,,,0.00,46,WeatherCatV1.21B27,2013-09-20 01:43:00,
2013-09-19 18:48:00,64.7,22.7,29.82,WNW,303,9.0,9.0,20,0.00,,,0.00,30,WeatherCatV1.21B27,2013-09-20 01:48:00,
2013-09-19 18:53:00,64.3,23.5,29.82,WSW,253,0.0,7.0,21,0.00,,,0.00,9,WeatherCatV1.21B27,2013-09-20 01:53:00,
2013-09-19 18:58:00,63.9,23.2,29.82,WNW,283,4.0,6.0,21,0.00,,,0.00,7,WeatherCatV1.21B27,2013-09-20 01:58:00,
2013-09-19 19:03:00,63.4,23.9,29.84,West,279,0.0,1.0,22,0.00,,,0.00,5,WeatherCatV1.21B27,2013-09-20 02:03:00,
2013-09-19 19:08:00,62.9,24.5,29.84,West,278,0.0,0.0,23,0.00,,,0.00,0,WeatherCatV1.21B27,2013-09-20 02:08:00,
2013-09-19 19:13:00,62.4,24.1,29.84,West,278,0.0,0.0,23,0.00,,,0.00,0,WeatherCatV1.21B27,2013-09-20 02:13:00,
2013-09-19 19:18:00,62.0,23.8,29.82,West,276,0.0,0.0,23,0.00,,,0.00,0,WeatherCatV1.21B27,2013-09-20 02:18:00,
2013-09-19 19:23:00,61.5,23.4,29.82,West,276,0.0,2.0,23,0.00,,,0.00,0,WeatherCatV1.21B27,2013-09-20 02:23:00,
2013-09-19 19:28:00,61.0,24.0,29.82,West,276,0.0,0.0,24,0.00,,,0.00,0,WeatherCatV1.21B27,2013-09-20 02:28:00,
2013-09-19 19:33:00,60.5,24.5,29.82,West,276,0.0,1.0,25,0.00,,,0.00,0,WeatherCatV1.21B27,2013-09-20 02:33:00,
2013-09-19 19:38:00,60.2,24.2,29.82,West,276,0.0,0.0,25,0.00,,,0.00,0,WeatherCatV1.21B27,2013-09-20 02:38:00,
2013-09-19 19:43:00,59.8,24.9,29.82,West,276,0.0,0.0,26,0.00,,,0.00,0,WeatherCatV1.21B27,2013-09-20 02:43:00,
2013-09-19 19:48:00,59.3,24.4,29.83,West,276,0.0,0.0,26,0.00,,,0.00,0,WeatherCatV1.21B27,2013-09-20 02:48:00,
2013-09-19 19:53:00,59.0,24.2,29.83,West,278,0.0,2.0,26,0.00,,,0.00,0,WeatherCatV1.21B27,2013-09-20 02:53:00,
2013-09-19 19:58:00,58.9,24.1,29.83,West,278,0.0,0.0,26,0.00,,,0.00,0,WeatherCatV1.21B27,2013-09-20 02:58:00,
2013-09-19 20:03:00,58.9,25.0,29.84,NW,322,1.0,3.0,27,0.00,,,0.00,0,WeatherCatV1.21B27,2013-09-20 03:03:00,
2013-09-19 20:08:00,58.7,24.8,29.84,NW,323,0.0,0.0,27,0.00,,,0.00,0,WeatherCatV1.21B27,2013-09-20 03:08:00,
2013-09-19 20:13:00,58.6,22.9,29.84,NNW,342,0.0,3.0,25,0.00,,,0.00,0,WeatherCatV1.21B27,2013-09-20 03:13:00,
2013-09-19 20:18:00,58.6,23.8,29.83,NNW,345,0.0,1.0,26,0.00,,,0.00,0,WeatherCatV1.21B27,2013-09-20 03:18:00,
2013-09-19 20:23:00,58.4,23.7,29.83,ENE,75,1.0,4.0,26,0.00,,,0.00,0,WeatherCatV1.21B27,2013-09-20 03:23:00,
2013-09-19 20:28:00,58.1,22.5,29.83,East,83,1.0,5.0,25,0.00,,,0.00,0,WeatherCatV1.21B27,2013-09-20 03:28:00,
2013-09-19 20:33:00,57.8,22.2,29.85,ESE,107,2.0,4.0,25,0.00,,,0.00,0,WeatherCatV1.21B27,2013-09-20 03:33:00,
2013-09-19 20:38:00,57.5,22.0,29.85,SE,127,1.0,5.0,25,0.00,,,0.00,0,WeatherCatV1.21B27,2013-09-20 03:38:00,
2013-09-19 20:43:00,57.5,21.0,29.85,SE,145,3.0,5.0,24,0.00,,,0.00,0,WeatherCatV1.21B27,2013-09-20 03:43:00,
2013-09-19 20:48:00,57.6,22.0,29.85,SE,135,2.0,8.0,25,0.00,,,0.00,0,WeatherCatV1.21B27,2013-09-20 03:48:00,
2013-09-19 20:53:00,57.5,21.0,29.85,SE,142,1.0,7.0,24,0.00,,,0.00,0,WeatherCatV1.21B27,2013-09-20 03:53:00,
2013-09-19 20:58:00,57.5,21.0,29.85,SSE,151,5.0,9.0,24,0.00,,,0.00,0,WeatherCatV1.21B27,2013-09-20 03:58:00,
2013-09-19 21:01:00,57.5,21.0,29.85,SE,140,5.0,9.0,24,0.00,,,0.00,0,WeatherCatV1.21B27,2013-09-20 04:01:00,
2013-09-19 21:02:00,57.5,21.0,29.85,SE,137,5.0,7.0,24,0.00,,,0.00,0,WeatherCatV1.21B27,2013-09-20 04:02:00,
2013-09-19 21:04:00,57.5,21.0,29.85,SE,140,5.0,6.0,24,0.00,,,0.00,0,WeatherCatV1.21B27,2013-09-20 04:04:00,
2013-09-19 21:05:00,57.5,21.0,29.85,SSE,151,6.0,7.0,24,0.00,,,0.00,0,WeatherCatV1.21B27,2013-09-20 04:05:00,
2013-09-19 21:10:00,57.3,21.8,29.85,SSE,149,5.0,10.0,25,0.00,,,0.00,0,WeatherCatV1.21B27,2013-09-20 04:10:00,
2013-09-19 21:15:00,57.3,20.8,29.82,SE,144,5.0,9.0,24,0.00,,,0.00,0,WeatherCatV1.21B27,2013-09-20 04:15:00,
2013-09-19 21:20:00,57.3,21.8,29.82,SSE,152,5.0,6.0,25,0.00,,,0.00,0,WeatherCatV1.21B27,2013-09-20 04:20:00,
2013-09-19 21:25:00,57.3,21.8,29.82,SE,143,3.0,7.0,25,0.00,,,0.00,0,WeatherCatV1.21B27,2013-09-20 04:25:00,
2013-09-19 21:30:00,57.3,21.8,29.83,SE,145,5.0,7.0,25,0.00,,,0.00,0,WeatherCatV1.21B27,2013-09-20 04:30:00,
2013-09-19 21:35:00,57.3,21.8,29.83,SE,140,2.0,5.0,25,0.00,,,0.00,0,WeatherCatV1.21B27,2013-09-20 04:35:00,
2013-09-19 21:40:00,57.3,21.8,29.83,SE,141,4.0,5.0,25,0.00,,,0.00,0,WeatherCatV1.21B27,2013-09-20 04:40:00,
2013-09-19 21:45:00,57.2,22.6,29.82,SSE,151,3.0,5.0,26,0.00,,,0.00,0,WeatherCatV1.21B27,2013-09-20 04:45:00,
2013-09-19 21:50:00,57.2,22.6,29.82,SSE,151,4.0,7.0,26,0.00,,,0.00,0,WeatherCatV1.21B27,2013-09-20 04:50:00,
2013-09-19 21:55:00,57.2,22.6,29.82,SE,146,4.0,7.0,26,0.00,,,0.00,0,WeatherCatV1.21B27,2013-09-20 04:55:00,
2013-09-19 22:00:00,57.0,22.5,29.82,SSE,147,3.0,6.0,26,0.00,,,0.00,0,WeatherCatV1.21B27,2013-09-20 05:00:00,
2013-09-19 22:05:00,56.9,22.4,29.82,SE,128,4.0,7.0,26,0.00,,,0.00,0,WeatherCatV1.21B27,2013-09-20 05:05:00,
2013-09-19 22:10:00,56.9,22.4,29.82,SE,145,3.0,7.0,26,0.00,,,0.00,0,WeatherCatV1.21B27,2013-09-20 05:10:00,
2013-09-19 22:15:00,56.9,22.4,29.80,SE,141,5.0,6.0,26,0.00,,,0.00,0,WeatherCatV1.21B27,2013-09-20 05:15:00,
2013-09-19 22:20:00,56.9,22.4,29.80,SE,145,5.0,7.0,26,0.00,,,0.00,0,WeatherCatV1.21B27,2013-09-20 05:20:00,
2013-09-19 22:25:00,57.0,22.5,29.80,SE,137,4.0,5.0,26,0.00,,,0.00,0,WeatherCatV1.21B27,2013-09-20 05:25:00,
2013-09-19 22:30:00,57.0,22.5,29.80,SE,137,4.0,5.0,26,0.00,,,0.00,0,WeatherCatV1.21B27,2013-09-20 05:30:00,
2013-09-19 22:35:00,57.2,22.6,29.80,SE,137,4.0,4.0,26,0.00,,,0.00,0,WeatherCatV1.21B27,2013-09-20 05:35:00,
2013-09-19 22:40:00,57.2,22.6,29.80,SE,137,3.0,4.0,26,0.00,,,0.00,0,WeatherCatV1.21B27,2013-09-20 05:40:00,
2013-09-19 22:45:00,57.2,22.6,29.80,SE,137,0.0,5.0,26,0.00,,,0.00,0,WeatherCatV1.21B27,2013-09-20 05:45:00,
2013-09-19 22:50:00,57.2,22.6,29.80,SE,137,3.0,4.0,26,0.00,,,0.00,0,WeatherCatV1.21B27,2013-09-20 05:50:00,
2013-09-19 22:55:00,57.2,22.6,29.80,SE,139,5.0,5.0,26,0.00,,,0.00,0,WeatherCatV1.21B27,2013-09-20 05:55:00,
2013-09-19 23:00:00,57.2,21.7,29.80,SE,140,4.0,5.0,25,0.00,,,0.00,0,WeatherCatV1.21B27,2013-09-20 06:00:00,
2013-09-19 23:05:00,57.3,20.8,29.80,SE,139,2.0,4.0,24,0.00,,,0.00,0,WeatherCatV1.21B27,2013-09-20 06:05:00,
2013-09-19 23:10:00,57.5,21.0,29.80,SE,141,4.0,6.0,24,0.00,,,0.00,0,WeatherCatV1.21B27,2013-09-20 06:10:00,
2013-09-19 23:15:00,57.6,20.1,29.76,SE,141,5.0,6.0,23,0.00,,,0.00,0,WeatherCatV1.21B27,2013-09-20 06:15:00,
2013-09-19 23:20:00,58.0,20.4,29.76,SE,142,3.0,4.0,23,0.00,,,0.00,0,WeatherCatV1.21B27,2013-09-20 06:20:00,
2013-09-19 23:25:00,58.1,20.5,29.76,SE,141,0.0,6.0,23,0.00,,,0.00,0,WeatherCatV1.21B27,2013-09-20 06:25:00,
2013-09-19 23:30:00,58.1,20.5,29.75,SE,139,0.0,4.0,23,0.00,,,0.00,0,WeatherCatV1.21B27,2013-09-20 06:30:00,
2013-09-19 23:35:00,58.1,20.5,29.75,SE,139,0.0,0.0,23,0.00,,,0.00,0,WeatherCatV1.21B27,2013-09-20 06:35:00,
2013-09-19 23:40:00,57.8,20.2,29.75,SSE,147,3.0,4.0,23,0.00,,,0.00,0,WeatherCatV1.21B27,2013-09-20 06:40:00,
2013-09-19 23:45:00,57.3,20.8,29.75,SSE,147,0.0,1.0,24,0.00,,,0.00,0,WeatherCatV1.21B27,2013-09-20 06:45:00,
2013-09-19 23:50:00,56.9,21.5,29.75,SSE,147,0.0,0.0,25,0.00,,,0.00,0,WeatherCatV1.21B27,2013-09-20 06:50:00,
2013-09-19 23:55:00,56.6,22.1,29.75,SSE,147,0.0,0.0,26,0.00,,,0.00,0,WeatherCatV1.21B27,2013-09-20 06:55:00,